Orbital Elements at Epoch 2459200.5 (2020-Dec-17.0) TDB
Reference: JPL 20 (heliocentric ecliptic J2000)
Element | Value | Uncertainty (1-sigma) | Units |
e | .1529075519484869 | 3.7096e-08 | |
a | 2.257047699289997 | 9.1975e-09 | au |
q | 1.911928060960599 | 8.2134e-08 | au |
i | 4.226548933246637 | 4.3866e-06 | deg |
node | 226.3559418942476 | 5.4359e-05 | deg |
peri | 34.6757461248653 | 5.6045e-05 | deg |
M | 176.1696882090776 | 1.4341e-05 | deg |
tp | 2458594.408465908923 (2019-Apr-20.90846591) | 4.841e-05 | TDB |
period | 1238.538561831573 3.39 | 7.5706e-06 2.073e-08 | d yr |
n | .2906651525388321 | 1.7767e-09 | deg/d |
Q | 2.602167337619395 | 1.0604e-08 | au |
|
| | Orbit Determination Parameters
Additional Information
|